(250771) = 2008 CF32 = 2005 TS5

Discovered at Catalina on 2005-10-01 by CSS.

Orbit

Orbit type: Main Belt

Note: WebGL enabled browser required.

epoch2024-03-31.0
epoch JD2460400.5
perihelion date2020-04-30.27169
perihelion JD2458969.77169
argument of perihelion (°)294.19640
ascending node (°)333.64222
inclination (°)8.56448
eccentricity0.1486788
perihelion distance (AU)2.5951744
Tisserand w.r.t. Jupiter3.2
ΔV w.r.t. Earth (km/sec)10.4
semimajor axis (AU)3.0484080
mean anomaly (°)264.94235
mean daily motion (°/day)0.18518010
aphelion distance (AU)3.502
period (years)5.32
P-vector [x]-0.03319844
P-vector [y]-0.85443380
P-vector [z]-0.51849854
Q-vector [x]0.99725939
Q-vector [y]-0.06263915
Q-vector [z]0.03937050
absolute magnitude15.63
phase slope0.15
uncertainty0
referenceMPEC 2024-E73
observations used420
oppositions17
arc length (days)9917
first opposition used1997
last opposition used2024
residual rms (arc-secs)0.72
perturbers coarse indicatorM-v
perturbers precise indicator003Ek
first observation date used1997-01-09.0
last observation date used2024-03-05.0
computer nameMPCLINUX
JD of orbit computation2456789.303613
perihelion JD uncertainty (days)1.9454E-04
argument of perihelion uncertainty (°)5.1659E-05
ascending node uncertainty (°)3.3579E-05
inclination uncertainty (°)7.0145E-06
eccentricity uncertainty 4.7121E-08
perihelion distance uncertainty (AU)1.5452E-07
Minimum Orbit Intersection Distances (in AU)
for orbit epoch: 2460400.5, reference: E2024-G88
Mercury2.13106
Venus1.87558
Earth1.59393
Mars1.1411
Jupiter1.71467
Saturn5.60383
Uranus15.2112
Neptune26.4853

Observations

430 total observations over interval: 1997 01 09.34954 – 2024 03 05.221736
These data are available for download (format description).

Date (UT) J2000 RA J2000 Dec Magn Location Ref
1997 01 09.34954 09 08 31.74 +22 23 27.7 20.8 V 691 – Steward Observatory, Kitt Peak-Spacewatch MPS 239449
1997 01 09.37214 09 08 30.72 +22 23 31.0 21.4 V 691 – Steward Observatory, Kitt Peak-Spacewatch MPS 239449
1997 01 09.39464 09 08 29.72 +22 23 33.6 21.0 V 691 – Steward Observatory, Kitt Peak-Spacewatch MPS 239449
2001 12 18.424040 07 40 40.525 +30 23 55.25 21.06 V 645 – Apache Point-Sloan Digital Sky Survey MPS 239449
2001 12 18.427512 07 40 40.367 +30 23 55.68 21.84   645 – Apache Point-Sloan Digital Sky Survey MPS 239449
2003 03 25.32491 11 34 38.17 -03 00 37.3 19.6 R 699 – Lowell Observatory-LONEOS MPS 239449
2003 03 25.34516 11 34 37.13 -03 00 33.4   699 – Lowell Observatory-LONEOS MPS 239449
2003 03 25.36015 11 34 36.33 -03 00 31.3   699 – Lowell Observatory-LONEOS MPS 239449
2003 03 25.37509 11 34 35.52 -03 00 28.8   699 – Lowell Observatory-LONEOS MPS 239449
2005 09 25.29407 01 22 50.34 +17 58 57.7 20.4 V 691 – Steward Observatory, Kitt Peak-Spacewatch MPS 239449
2005 09 25.31148 01 22 49.53 +17 58 56.3 20.7 V 691 – Steward Observatory, Kitt Peak-Spacewatch MPS 239449
2005 09 25.32882 01 22 48.74 +17 58 55.0 20.5 V 691 – Steward Observatory, Kitt Peak-Spacewatch MPS 239449
2005 10 01.33462 01 18 08.60 +17 48 18.4 19.9 V 703 – Catalina Sky Survey MPS 144441
2005 10 01.34382 01 18 08.02 +17 48 19.2 19.9 V 703 – Catalina Sky Survey MPS 144441
2005 10 01.35302 01 18 07.66 +17 48 15.3 19.9 V 703 – Catalina Sky Survey MPS 144441
2005 10 01.36221 01 18 07.12 +17 48 15.4 19.9 V 703 – Catalina Sky Survey MPS 144441
2005 10 02.37523 01 17 17.92 +17 45 59.1 20.1 R 644 – Palomar Mountain/NEAT MPS 144441
2005 10 02.39740 01 17 16.77 +17 45 55.8 19.6 R 644 – Palomar Mountain/NEAT MPS 144441
2005 10 02.41850 01 17 15.73 +17 45 52.4 19.8 R 644 – Palomar Mountain/NEAT MPS 144441
2005 10 27.23756 00 57 00.57 +16 20 10.7 19.7 V G96 – Mt. Lemmon Survey MPS 239449
2005 10 27.24521 00 57 00.21 +16 20 08.8 19.7 V G96 – Mt. Lemmon Survey MPS 239449
2005 10 27.25293 00 56 59.89 +16 20 06.9 19.9 V G96 – Mt. Lemmon Survey MPS 239449
2005 10 27.26050 00 56 59.53 +16 20 05.1 19.8 V G96 – Mt. Lemmon Survey MPS 239449
2008 02 02.23412 10 24 32.29 +11 27 33.9 20.3 V 691 – Steward Observatory, Kitt Peak-Spacewatch MPS 237710
2008 02 02.25174 10 24 31.54 +11 27 35.9 20.2 V 691 – Steward Observatory, Kitt Peak-Spacewatch MPS 237710
2008 02 02.26939 10 24 30.77 +11 27 38.6 20.6 V 691 – Steward Observatory, Kitt Peak-Spacewatch MPS 237710
2008 02 09.23780 10 19 12.21 +11 43 43.6 19.8 V 691 – Steward Observatory, Kitt Peak-Spacewatch MPS 237710
2008 02 09.25290 10 19 11.48 +11 43 45.8 19.8 V 691 – Steward Observatory, Kitt Peak-Spacewatch MPS 237710
2008 02 09.26800 10 19 10.72 +11 43 48.0 20.0 V 691 – Steward Observatory, Kitt Peak-Spacewatch MPS 237710
2008 02 10.24050 10 18 23.63 +11 46 11.0 20.0 V 691 – Steward Observatory, Kitt Peak-Spacewatch MPS 239449
2008 02 10.25816 10 18 22.76 +11 46 13.6 20.0 V 691 – Steward Observatory, Kitt Peak-Spacewatch MPS 239449
2008 02 10.27581 10 18 21.85 +11 46 16.2 20.1 V 691 – Steward Observatory, Kitt Peak-Spacewatch MPS 239449
2008 02 13.16593 10 15 59.00 +11 53 28.5 20.0 V 691 – Steward Observatory, Kitt Peak-Spacewatch MPS 239449
2008 02 13.18358 10 15 58.07 +11 53 31.0 20.0 V 691 – Steward Observatory, Kitt Peak-Spacewatch MPS 239449
2008 02 13.20125 10 15 57.33 +11 53 36.3 19.3 V 691 – Steward Observatory, Kitt Peak-Spacewatch MPS 239449
2008 03 26.23179 09 44 46.06 +13 06 53.4 20.7 V G96 – Mt. Lemmon Survey MPS 244037
2008 03 26.24016 09 44 45.85 +13 06 53.1 20.7 V G96 – Mt. Lemmon Survey MPS 244037
2008 03 26.24853 09 44 45.63 +13 06 53.3 20.7 V G96 – Mt. Lemmon Survey MPS 244037
2008 03 26.25690 09 44 45.38 +13 06 53.1 20.7 V G96 – Mt. Lemmon Survey MPS 244037
2008 04 26.21703 09 41 37.86 +12 27 38.1 21.2 V G96 – Mt. Lemmon Survey MPS 248152
2008 04 26.22274 09 41 37.93 +12 27 37.4 21.1 V G96 – Mt. Lemmon Survey MPS 248152
2008 04 26.22843 09 41 38.00 +12 27 36.5 21.1 V G96 – Mt. Lemmon Survey MPS 248152
2008 04 26.23410 09 41 38.04 +12 27 35.8 21.0 V G96 – Mt. Lemmon Survey MPS 248152
2008 05 10.13944 09 46 44.50 +11 41 55.3 22.3 V G96 – Mt. Lemmon Survey MPS 249818
2008 05 10.14702 09 46 44.79 +11 41 53.5 20.9 V G96 – Mt. Lemmon Survey MPS 249818
2008 05 10.15472 09 46 44.97 +11 41 51.5 20.9 V G96 – Mt. Lemmon Survey MPS 249818
2008 05 10.16211 09 46 45.15 +11 41 49.4 21.6 V G96 – Mt. Lemmon Survey MPS 249818
2010 06 17.84761 23 47 41.76 -01 01 53.0   C51 – WISE MPS 334897
2010 06 17.84773 23 47 41.77 -01 01 52.1   C51 – WISE MPS 334897
2010 06 17.979910 23 47 47.23 -01 00 59.6   C51 – WISE MPS 334897
2010 06 18.112214 23 47 52.71 -01 00 04.9   C51 – WISE MPS 334897
2010 06 18.244517 23 47 58.16 -00 59 11.6   C51 – WISE MPS 334897
2010 06 18.310734 23 48 00.88 -00 58 43.7   C51 – WISE MPS 334897
2010 06 18.376822 23 48 03.60 -00 58 18.1   C51 – WISE MPS 334897
2010 06 18.443037 23 48 06.30 -00 57 52.2   C51 – WISE MPS 334897
2010 06 18.509126 23 48 09.02 -00 57 24.1   C51 – WISE MPS 334897
2010 06 18.575341 23 48 11.74 -00 56 58.2   C51 – WISE MPS 334897
2010 06 18.641429 23 48 14.43 -00 56 31.8   C51 – WISE MPS 334897
2010 06 18.707645 23 48 17.07 -00 56 04.3   C51 – WISE MPS 334897
2010 06 18.83982 23 48 22.47 -00 55 11.9   C51 – WISE MPS 334897
2010 06 18.83995 23 48 22.42 -00 55 10.7   C51 – WISE MPS 334897
2010 06 18.97213 23 48 27.80 -00 54 18.1   C51 – WISE MPS 334897
2010 06 19.104429 23 48 33.13 -00 53 25.1   C51 – WISE MPS 334897
2010 09 04.31874 23 42 18.28 +02 21 37.6 19.9   704 – Lincoln Laboratory ETS, New Mexico MPS 347106
2010 09 04.34479 23 42 16.99 +02 21 34.9 20.2   704 – Lincoln Laboratory ETS, New Mexico MPS 347106
2010 09 04.35816 23 42 16.31 +02 21 33.7 20.2   704 – Lincoln Laboratory ETS, New Mexico MPS 347106
2010 09 05.36952 23 41 28.10 +02 19 27.9 19.2 V G96 – Mt. Lemmon Survey MPS 347106
2010 09 05.37657 23 41 27.74 +02 19 26.9 19.3 V G96 – Mt. Lemmon Survey MPS 347106
2010 09 05.38365 23 41 27.38 +02 19 25.9 19.7 V G96 – Mt. Lemmon Survey MPS 347106
2010 09 05.39072 23 41 27.06 +02 19 25.2 19.6 V G96 – Mt. Lemmon Survey MPS 347106
2010 09 11.31367 23 36 36.28 +02 05 39.2 19.0 V 703 – Catalina Sky Survey MPS 347968
2010 09 11.31993 23 36 36.07 +02 05 38.7 19.5 V 703 – Catalina Sky Survey MPS 347968
2010 09 11.32628 23 36 35.67 +02 05 37.9 19.8 V 703 – Catalina Sky Survey MPS 347968
2010 09 11.33266 23 36 35.35 +02 05 36.2 19.2 V 703 – Catalina Sky Survey MPS 347968
2010 09 28.378749 23 22 44.848 +01 17 51.91 19.63 r F51 – Pan-STARRS 1, Haleakala MPS 365315
2010 09 28.389756 23 22 44.305 +01 17 50.00 19.81 r F51 – Pan-STARRS 1, Haleakala MPS 365315
2010 10 09.21859 23 15 23.97 +00 48 47.4 20.6 R I41 – Palomar Mountain--ZTF MPS 1522752
2010 10 09.26865 23 15 22.19 +00 48 40.1 20.6 R I41 – Palomar Mountain--ZTF MPS 1522752
2010 10 12.22621 23 13 42.38 +00 41 49.7 19.6 V 703 – Catalina Sky Survey MPS 353638
2010 10 12.23314 23 13 42.16 +00 41 49.1 19.9 V 703 – Catalina Sky Survey MPS 353638
2010 10 12.24009 23 13 41.88 +00 41 47.8 19.7 V 703 – Catalina Sky Survey MPS 353638
2010 10 12.24014 23 13 41.91 +00 41 48.2 19.8 V G96 – Mt. Lemmon Survey MPS 353638
2010 10 12.24702 23 13 41.77 +00 41 47.8 20.0 V 703 – Catalina Sky Survey MPS 353638
2010 10 12.24714 23 13 41.70 +00 41 47.1 19.8 V G96 – Mt. Lemmon Survey MPS 353638
2010 10 12.25412 23 13 41.48 +00 41 46.2 20.0 V G96 – Mt. Lemmon Survey MPS 353638
2010 10 12.26107 23 13 41.23 +00 41 45.0 19.4 V G96 – Mt. Lemmon Survey MPS 353638
2010 10 17.09577 23 11 20.64 +00 32 04.6 18.8 J W91 – VHS-VISTA, Cerro Paranal MPS 678281
2010 10 17.10024 23 11 20.52 +00 32 04.1 18.8 J W91 – VHS-VISTA, Cerro Paranal MPS 678281
2010 10 17.10299 23 11 20.44 +00 32 03.7 18.0 K W91 – VHS-VISTA, Cerro Paranal MPS 678281
2010 10 17.10785 23 11 20.30 +00 32 03.3 18.2 K W91 – VHS-VISTA, Cerro Paranal MPS 678281
2010 10 17.11073 23 11 20.22 +00 32 02.9 18.2 H W91 – VHS-VISTA, Cerro Paranal MPS 678281
2010 10 17.11640 23 11 20.07 +00 32 02.4 18.5 H W91 – VHS-VISTA, Cerro Paranal MPS 678281
2011 11 28.25058 04 07 37.66 +33 05 04.6 20.5 V G96 – Mt. Lemmon Survey MPS 403719
2011 11 28.26223 04 07 36.98 +33 05 02.7 20.7 V G96 – Mt. Lemmon Survey MPS 403719
